Lovelock, NV

4:58 AM PDT on September 28, 2016 (GMT -0700)
Derby

Weather History for KLOL - November, 2012

Change the Weather History Date:

Monday, November 26, 2012

  Actual Average Record
Temperature  
Mean Temperature 38 °F -  
Max Temperature 54 °F 47 °F 66 °F (1949)
Min Temperature 21 °F 19 °F -3 °F (1993)
Degree Days  
Heating Degree Days 28    
Moisture  
Dew Point 26 °F    
Average Humidity 68    
Maximum Humidity 92    
Minimum Humidity 40    
Precipitation  
Precipitation 0.00 in - - ()
Sea Level Pressure  
Sea Level Pressure 30.17 in    
Wind  
Wind Speed 4 mph (NE)    
Max Wind Speed 10 mph    
Max Gust Speed -    
Visibility 10 miles    
Events      
Averages and records for this station are not official NWS values.
T = Trace of Precipitation, MM = Missing Value Source: NWS Daily Summary

Daily Weather History Graph

Daily Weather History Graph

Search for Another Location

Airport or City:

Trip Planner

Search our weather history database for the weather conditions in past years. The results will help you decide how hot, cold, wet, or windy it might be!

Date:

Astronomy

Nov. 26, 2012 Rise Set
Actual Time 6:52 AM PST 4:30 PM PST
Civil Twilight 6:22 AM PST 5:00 PM PST
Nautical Twilight 5:49 AM PST 5:34 PM PST
Astronomical Twilight 5:16 AM PST 6:06 PM PST
Moon 3:26 PM PST (11/26) 5:07 AM PST (11/26)
Length of Visible Light 10h 37m
Length of Day
9h 38m
Waxing Gibbous, 97% of the Moon is Illuminated
Nov 26
Waxing Gibbous
Nov 28
Full
Dec 6
Last Quarter
Dec 13
New
Dec 19
First Quarter

Hourly Weather History & Observations

Time (PST) Temp. Windchill Dew Point Humidity Pressure Visibility Wind Dir Wind Speed Gust Speed Precip Events Conditions
12:53 AM 30.0 °F 25.2 °F 26.1 °F 85% 30.13 in 10.0 mi ENE 4.6 mph - N/A   Clear
1:53 AM 32.0 °F 26.4 °F 27.0 °F 82% 30.12 in 10.0 mi NW 5.8 mph - N/A   Clear
2:53 AM 25.0 °F 20.7 °F 21.9 °F 88% 30.14 in 10.0 mi SW 3.5 mph - N/A   Clear
3:53 AM 28.0 °F 24.2 °F 25.0 °F 88% 30.14 in 10.0 mi East 3.5 mph - N/A   Clear
4:53 AM 34.0 °F 26.6 °F 28.9 °F 82% 30.16 in 10.0 mi NNE 9.2 mph - N/A   Clear
5:53 AM 32.0 °F 24.2 °F 28.0 °F 85% 30.19 in 10.0 mi NNE 9.2 mph - N/A   Clear
6:53 AM 30.9 °F 24.3 °F 27.0 °F 85% 30.20 in 10.0 mi NNW 6.9 mph - N/A   Clear
7:53 AM 28.0 °F - 26.1 °F 92% 30.23 in 10.0 mi Calm Calm - N/A   Clear
8:53 AM 37.0 °F 31.6 °F 30.0 °F 76% 30.23 in 10.0 mi North 6.9 mph - N/A   Clear
9:53 AM 42.1 °F 36.1 °F 30.9 °F 65% 30.22 in 10.0 mi NE 10.4 mph - N/A   Clear
10:53 AM 46.9 °F - 33.1 °F 59% 30.21 in 10.0 mi NE 6.9 mph - N/A   Clear
11:53 AM 48.9 °F - 32.0 °F 52% 30.18 in 10.0 mi Calm Calm - N/A   Clear
12:53 PM 52.0 °F - 32.0 °F 47% 30.17 in 10.0 mi East 3.5 mph - N/A   Clear
1:53 PM 53.1 °F - 30.9 °F 43% 30.13 in 10.0 mi Variable 4.6 mph - N/A   Clear
2:53 PM 54.0 °F - 30.0 °F 40% 30.13 in 10.0 mi Calm Calm - N/A   Clear
3:53 PM 54.0 °F - 30.0 °F 40% 30.12 in 10.0 mi Calm Calm - N/A   Clear
4:53 PM 46.9 °F - 27.0 °F 46% 30.12 in 10.0 mi Calm Calm - N/A   Clear
5:53 PM 41.0 °F - 27.0 °F 57% 30.14 in 10.0 mi Calm Calm - N/A   Clear
6:53 PM 34.0 °F - 23.0 °F 64% 30.18 in 10.0 mi Calm Calm - N/A   Clear
7:53 PM 28.0 °F - 19.0 °F 69% 30.22 in 10.0 mi Calm Calm - N/A   Clear
9:53 PM 21.0 °F - 10.9 °F 65% 30.22 in 10.0 mi Calm Calm - N/A   Clear
10:53 PM 21.0 °F - 14.0 °F 74% 30.22 in 10.0 mi Calm Calm - N/A   Clear
11:53 PM 23.0 °F - 17.1 °F 78% 30.22 in 10.0 mi Calm Calm - N/A   Clear